Weather History for Minden, LA

Change the Weather History Date:

Tuesday, March 4, 2014

  Actual Average (KBAD) Record (KBAD)
Temperature  
Mean Temperature 34 °F -  
Max Temperature 44 °F 61 °F 76 °F (2013)
Min Temperature 24 °F 42 °F 17 °F (2002)
Degree Days  
Heating Degree Days 31    
Moisture  
Dew Point 23 °F    
Average Humidity 68    
Maximum Humidity 82    
Minimum Humidity 44    
Precipitation  
Precipitation 0.00 in - - ()
Sea Level Pressure  
Sea Level Pressure 30.20 in    
Wind  
Wind Speed 3 mph (NE)    
Max Wind Speed 8 mph    
Max Gust Speed -    
Visibility 10 miles    
Events      
Averages and records for this station are not official NWS values.
T = Trace of Precipitation, MM = Missing Value Source: NWS Daily Summary

Daily Weather History Graph

Daily Weather History Graph

Search for Another Location

Airport:

Trip Planner

Search our weather history database for the weather conditions in past years. The results will help you decide how hot, cold, wet, or windy it might be!

Date:

Astronomy

Mar. 04, 2014 Rise Set
Actual Time 6:37 AM CST 6:12 PM CST
Civil Twilight 6:12 AM CST 6:37 PM CST
Nautical Twilight 5:44 AM CST 7:06 PM CST
Astronomical Twilight 5:15 AM CST 7:34 PM CST
Moon 8:37 AM CST (3/4) 10:05 PM CST (3/4)
Length of Visible Light 12h 24m
Length of Day
11h 35m
Waxing Crescent, 15% of the Moon is Illuminated
Mar 4
Waxing Crescent
Mar 8
First Quarter
Mar 16
Full
Mar 23
Last Quarter
Mar 30
New

Hourly Weather History & Observations

Time (CST) Temp. Windchill Dew Point Humidity Pressure Visibility Wind Dir Wind Speed Gust Speed Precip Events Conditions
12:15 AM 26.6 °F 20.0 °F 21.2 °F 80% 30.31 in 10.0 mi NNE 5.8 mph - N/A   Overcast
12:35 AM 26.4 °F 19.8 °F 21.2 °F 81% 30.30 in 10.0 mi NE 5.8 mph - N/A   Overcast
12:55 AM 26.1 °F 20.5 °F 21.0 °F 81% 30.30 in 10.0 mi North 4.6 mph - N/A   Scattered Clouds
1:15 AM 25.7 °F - 20.5 °F 81% 30.31 in 10.0 mi Calm Calm - N/A   Clear
1:35 AM 25.7 °F - 20.3 °F 80% 30.31 in 10.0 mi Calm Calm - N/A   Clear
1:55 AM 25.7 °F - 20.3 °F 80% 30.31 in 10.0 mi Calm Calm - N/A   Clear
2:15 AM 25.7 °F 21.5 °F 20.5 °F 81% 30.29 in 10.0 mi NE 3.5 mph - N/A   Clear
2:35 AM 25.7 °F 20.1 °F 20.5 °F 81% 30.29 in 10.0 mi North 4.6 mph - N/A   Clear
2:55 AM 25.7 °F 19.0 °F 19.9 °F 79% 30.27 in 10.0 mi NNE 5.8 mph - N/A   Clear
3:15 AM 25.5 °F - 19.8 °F 79% 30.27 in 10.0 mi Calm Calm - N/A   Clear
3:35 AM 25.3 °F 21.1 °F 20.3 °F 81% 30.24 in 10.0 mi NNE 3.5 mph - N/A   Clear
3:55 AM 24.8 °F 20.5 °F 20.1 °F 82% 30.21 in 10.0 mi NNE 3.5 mph - N/A   Clear
4:15 AM 24.8 °F 20.5 °F 19.8 °F 81% 30.21 in 10.0 mi NE 3.5 mph - N/A   Clear
4:35 AM 24.8 °F 20.5 °F 19.8 °F 81% 30.19 in 10.0 mi North 3.5 mph - N/A   Clear
4:55 AM 25.0 °F 20.7 °F 19.4 °F 79% 30.20 in 10.0 mi NNE 3.5 mph - N/A   Clear
5:15 AM 25.2 °F 20.9 °F 19.6 °F 79% 30.21 in 10.0 mi North 3.5 mph - N/A   Clear
5:35 AM 25.3 °F - 19.8 °F 79% 30.24 in 10.0 mi Calm Calm - N/A   Clear
5:55 AM 25.5 °F 21.3 °F 19.9 °F 79% 30.25 in 10.0 mi North 3.5 mph - N/A   Clear
6:15 AM 25.7 °F - 20.1 °F 79% 30.25 in 10.0 mi Calm Calm - N/A   Clear
6:35 AM 25.5 °F - 19.9 °F 79% 30.24 in 10.0 mi Calm Calm - N/A   Clear
6:55 AM 25.7 °F - 20.3 °F 80% 30.25 in 10.0 mi Calm Calm - N/A   Clear
7:15 AM 25.7 °F - 20.3 °F 80% 30.26 in 10.0 mi Calm Calm - N/A   Clear
7:35 AM 26.4 °F - 20.3 °F 78% 30.27 in 10.0 mi Calm Calm - N/A   Clear
7:55 AM 26.4 °F - 20.1 °F 77% 30.27 in 10.0 mi Calm Calm - N/A   Scattered Clouds
8:15 AM 26.6 °F - 20.5 °F 78% 30.26 in 10.0 mi Calm Calm - N/A   Scattered Clouds
8:35 AM 27.3 °F 22.0 °F 21.2 °F 78% 30.27 in 10.0 mi North 4.6 mph - N/A   Scattered Clouds
8:55 AM 27.3 °F 23.4 °F 20.8 °F 77% 30.26 in 10.0 mi North 3.5 mph - N/A   Clear
9:15 AM 28.0 °F 22.8 °F 21.4 °F 76% 30.26 in 10.0 mi North 4.6 mph - N/A   Clear
9:35 AM 28.4 °F 23.3 °F 21.7 °F 76% 30.27 in 10.0 mi NNW 4.6 mph - N/A   Clear
9:55 AM 28.9 °F 25.2 °F 22.1 °F 76% 30.27 in 10.0 mi North 3.5 mph - N/A   Clear
10:15 AM 29.7 °F 24.7 °F 22.3 °F 74% 30.27 in 10.0 mi North 4.6 mph - N/A   Clear
10:35 AM 30.0 °F 26.5 °F 22.1 °F 72% 30.26 in 10.0 mi North 3.5 mph - N/A   Clear
10:55 AM 31.3 °F 25.6 °F 22.8 °F 71% 30.24 in 10.0 mi North 5.8 mph - N/A   Clear
11:15 AM 32.0 °F 28.7 °F 22.8 °F 69% 30.23 in 10.0 mi North 3.5 mph - N/A   Clear
11:35 AM 33.3 °F 28.9 °F 23.4 °F 67% 30.23 in 10.0 mi NNE 4.6 mph - N/A   Clear
11:55 AM 34.0 °F - 23.5 °F 66% 30.21 in 10.0 mi Calm Calm - N/A   Clear
12:15 PM 34.5 °F - 23.5 °F 64% 30.20 in 10.0 mi Calm Calm - N/A   Clear
12:35 PM 36.7 °F 32.9 °F 24.4 °F 61% 30.19 in 10.0 mi East 4.6 mph - N/A   Clear
12:55 PM 37.6 °F - 23.5 °F 57% 30.19 in 10.0 mi Calm Calm - N/A   Clear
1:15 PM 37.8 °F - 23.0 °F 55% 30.19 in 10.0 mi Calm Calm - N/A   Clear
1:35 PM 39.4 °F 36.1 °F 23.4 °F 53% 30.18 in 10.0 mi ENE 4.6 mph - N/A   Clear
1:55 PM 39.4 °F 37.2 °F 23.7 °F 54% 30.16 in 10.0 mi NE 3.5 mph - N/A   Clear
2:15 PM 40.5 °F - 23.7 °F 51% 30.15 in 10.0 mi Calm Calm - N/A   Clear
2:35 PM 41.7 °F 39.8 °F 23.2 °F 48% 30.15 in 10.0 mi NE 3.5 mph - N/A   Clear
2:55 PM 41.4 °F 38.4 °F 23.0 °F 48% 30.14 in 10.0 mi East 4.6 mph - N/A   Clear
3:15 PM 42.3 °F - 23.0 °F 47% 30.13 in 10.0 mi Calm Calm - N/A   Clear
3:35 PM 42.6 °F - 23.4 °F 47% 30.12 in 10.0 mi Calm Calm - N/A   Clear
3:55 PM 42.3 °F 39.4 °F 23.4 °F 47% 30.12 in 10.0 mi ESE 4.6 mph - N/A   Clear
4:15 PM 44.1 °F - 23.4 °F 44% 30.12 in 10.0 mi Calm Calm - N/A   Clear
4:35 PM 43.5 °F 41.9 °F 22.8 °F 44% 30.11 in 10.0 mi SE 3.5 mph - N/A   Clear
4:55 PM 43.0 °F 41.3 °F 23.5 °F 46% 30.11 in 10.0 mi East 3.5 mph - N/A   Clear
5:15 PM 42.6 °F 40.9 °F 23.2 °F 46% 30.11 in 10.0 mi East 3.5 mph - N/A   Clear
5:35 PM 42.3 °F 40.5 °F 23.0 °F 47% 30.11 in 10.0 mi East 3.5 mph - N/A   Clear
5:55 PM 41.9 °F - 24.1 °F 49% 30.12 in 10.0 mi Calm Calm - N/A   Clear
6:15 PM 41.0 °F - 25.5 °F 54% 30.12 in 10.0 mi Calm Calm - N/A   Clear
6:35 PM 40.5 °F - 25.9 °F 56% 30.12 in 10.0 mi Calm Calm - N/A   Clear
6:55 PM 40.1 °F 38.0 °F 26.6 °F 59% 30.12 in 10.0 mi East 3.5 mph - N/A   Clear
7:15 PM 39.7 °F - 26.6 °F 59% 30.12 in 10.0 mi Calm Calm - N/A   Clear
7:35 PM 39.7 °F 37.6 °F 25.5 °F 57% 30.12 in 10.0 mi East 3.5 mph - N/A   Clear
7:55 PM 39.2 °F 37.0 °F 25.7 °F 58% 30.13 in 10.0 mi ESE 3.5 mph - N/A   Clear
8:15 PM 38.7 °F 36.3 °F 25.5 °F 59% 30.13 in 10.0 mi East 3.5 mph - N/A   Clear
8:35 PM 37.8 °F 35.3 °F 25.3 °F 61% 30.13 in 10.0 mi East 3.5 mph - N/A   Clear
8:55 PM 36.5 °F 31.8 °F 25.7 °F 65% 30.12 in 10.0 mi East 5.8 mph - N/A   Clear
9:15 PM 35.8 °F 33.0 °F 25.5 °F 66% 30.12 in 10.0 mi East 3.5 mph - N/A   Clear
9:35 PM 35.6 °F - 25.7 °F 67% 30.14 in 10.0 mi Calm Calm - N/A   Clear
9:55 PM 33.3 °F - 28.2 °F 82% 30.14 in 10.0 mi Calm Calm - N/A   Clear
10:15 PM 33.4 °F 30.4 °F 26.4 °F 75% 30.14 in 10.0 mi East 3.5 mph - N/A   Clear
10:35 PM 32.9 °F 29.8 °F 26.1 °F 76% 30.12 in 10.0 mi East 3.5 mph - N/A   Clear
10:55 PM 32.9 °F 28.5 °F 26.1 °F 76% 30.12 in 10.0 mi East 4.6 mph - N/A   Clear
11:15 PM 32.4 °F 27.9 °F 25.9 °F 77% 30.11 in 10.0 mi East 4.6 mph - N/A   Clear
11:35 PM 32.0 °F 26.4 °F 26.4 °F 80% 30.09 in 10.0 mi ESE 5.8 mph - N/A   Clear
11:55 PM 32.0 °F 24.8 °F 26.6 °F 80% 30.08 in 10.0 mi ESE 8.1 mph - N/A   Clear